| time (UTC) | temp F | wind direction | speed MPH | gust MPH | rain 1hr in | rain 24hr in | rain mn in | humidity % | barometer mb |
| 20260507075535 | 49 | 341 | 3.0 | 6.0 | 0.00 | 0.28 | 0.04 | 92 | 1004.0 |
| 20260507075032 | 50 | 341 | 1.0 | 4.0 | 0.00 | 0.28 | 0.04 | 93 | 1004.2 |
| 20260507074545 | 50 | 311 | 1.0 | 4.0 | 0.00 | 0.28 | 0.04 | 93 | 1004.3 |
| 20260507074031 | 50 | 308 | 2.0 | 4.0 | 0.00 | 0.28 | 0.04 | 93 | 1004.3 |
| 20260507073532 | 50 | 327 | 2.0 | 5.0 | 0.00 | 0.28 | 0.04 | 93 | 1004.0 |
| 20260507073045 | 50 | 320 | 3.0 | 5.0 | 0.00 | 0.28 | 0.04 | 93 | 1004.1 |
| 20260507072533 | 50 | 344 | 3.0 | 5.0 | 0.00 | 0.28 | 0.04 | 93 | 1004.0 |
| 20260507072032 | 50 | 340 | 2.0 | 5.0 | 0.00 | 0.28 | 0.04 | 94 | 1003.9 |
| 20260507071547 | 50 | 327 | 2.0 | 3.0 | 0.00 | 0.28 | 0.04 | 94 | 1003.7 |
| 20260507071032 | 50 | 327 | 2.0 | 3.0 | 0.00 | 0.28 | 0.04 | 94 | 1003.8 |
| 20260507070532 | 50 | 321 | 2.0 | 4.0 | 0.00 | 0.28 | 0.04 | 94 | 1003.8 |
| 20260507070059 | 50 | 329 | 2.0 | 4.0 | 0.00 | 0.28 | 0.04 | 94 | 1003.8 |
| 20260507065532 | 50 | 322 | 2.0 | 4.0 | 0.00 | 0.28 | 0.04 | 94 | 1003.6 |
| 20260507065032 | 50 | 319 | 2.0 | 3.0 | 0.00 | 0.28 | 0.04 | 94 | 1003.6 |
| 20260507064547 | 50 | 305 | 0.0 | 3.0 | 0.00 | 0.28 | 0.04 | 94 | 1003.7 |
| 20260507064032 | 50 | 0 | 0.0 | 2.0 | 0.00 | 0.28 | 0.04 | 94 | 1003.7 |
| 20260507063532 | 50 | 305 | 0.0 | 3.0 | 0.00 | 0.28 | 0.04 | 94 | 1003.7 |
| 20260507063041 | 50 | 0 | 0.0 | 3.0 | 0.00 | 0.28 | 0.04 | 94 | 1003.5 |
| 20260507062533 | 50 | 305 | 1.0 | 3.0 | 0.00 | 0.28 | 0.04 | 94 | 1003.6 |
| 20260507062033 | 51 | 328 | 2.0 | 3.0 | 0.00 | 0.28 | 0.04 | 94 | 1003.5 |
| 20260507061545 | 51 | 300 | 0.0 | 2.0 | 0.01 | 0.28 | 0.04 | 94 | 1003.5 |
| 20260507061033 | 51 | 0 | 0.0 | 4.0 | 0.01 | 0.28 | 0.04 | 94 | 1003.4 |
| 20260507060532 | 51 | 0 | 1.0 | 5.0 | 0.01 | 0.28 | 0.04 | 94 | 1003.4 |
| 20260507060048 | 51 | 301 | 2.0 | 5.0 | 0.01 | 0.28 | 0.04 | 95 | 1003.5 |
| 20260507055533 | 51 | 313 | 3.0 | 5.0 | 0.01 | 0.28 | 0.04 | 95 | 1003.5 |
| 20260507055032 | 51 | 306 | 2.0 | 5.0 | 0.01 | 0.28 | 0.04 | 95 | 1003.4 |
| 20260507054547 | 51 | 321 | 2.0 | 8.0 | 0.01 | 0.28 | 0.04 | 95 | 1003.3 |
| 20260507054032 | 51 | 342 | 2.0 | 10.0 | 0.01 | 0.28 | 0.04 | 95 | 1003.2 |
| 20260507053533 | 51 | 5 | 4.0 | 10.0 | 0.01 | 0.28 | 0.04 | 95 | 1003.1 |
| 20260507053054 | 51 | 350 | 4.0 | 10.0 | 0.02 | 0.28 | 0.04 | 96 | 1003.3 |
| 20260507052530 | 52 | 20 | 3.0 | 8.0 | 0.02 | 0.28 | 0.04 | 96 | 1003.3 |
| 20260507052030 | 52 | 31 | 2.0 | 7.0 | 0.03 | 0.28 | 0.04 | 97 | 1003.4 |
| 20260507051545 | 52 | 13 | 4.0 | 9.0 | 0.03 | 0.27 | 0.03 | 97 | 1003.4 |
| 20260507051029 | 53 | 28 | 3.0 | 9.0 | 0.03 | 0.27 | 0.03 | 97 | 1003.4 |
| 20260507050530 | 53 | 39 | 3.0 | 9.0 | 0.03 | 0.27 | 0.03 | 97 | 1003.3 |
| 20260507050104 | 54 | 18 | 4.0 | 9.0 | 0.03 | 0.27 | 0.03 | 98 | 1003.2 |
| 20260507045531 | 54 | 330 | 3.0 | 7.0 | 0.05 | 0.27 | 0.03 | 98 | 1002.9 |
| 20260507045031 | 54 | 309 | 3.0 | 5.0 | 0.05 | 0.27 | 0.03 | 98 | 1002.8 |
| 20260507044551 | 54 | 306 | 3.0 | 5.0 | 0.05 | 0.27 | 0.03 | 98 | 1002.7 |
| 20260507044030 | 54 | 294 | 1.0 | 2.0 | 0.05 | 0.27 | 0.03 | 98 | 1002.7 |
| 20260507043530 | 54 | 251 | 0.0 | 2.0 | 0.05 | 0.27 | 0.03 | 98 | 1002.7 |
| 20260507043044 | 54 | 293 | 0.0 | 4.0 | 0.04 | 0.26 | 0.02 | 98 | 1002.4 |
| 20260507042530 | 54 | 293 | 1.0 | 5.0 | 0.04 | 0.26 | 0.02 | 98 | 1002.2 |
| 20260507042030 | 54 | 284 | 2.0 | 5.0 | 0.03 | 0.25 | 0.01 | 98 | 1002.4 |
| 20260507041547 | 54 | 289 | 3.0 | 8.0 | 0.03 | 0.24 | 0.00 | 98 | 1002.4 |
| 20260507041032 | 53 | 288 | 0.0 | 8.0 | 0.03 | 0.24 | 0.00 | 98 | 1002.8 |
| 20260507040530 | 53 | 0 | 2.0 | 8.0 | 0.03 | 0.24 | 0.00 | 98 | 1002.7 |
| 20260507040048 | 52 | 253 | 1.0 | 7.0 | 0.03 | 0.24 | 0.00 | 98 | 1002.7 |
| 20260507035530 | 52 | 209 | 3.0 | 7.0 | 0.01 | 0.22 | 0.22 | 97 | 1002.5 |
| 20260507035033 | 52 | 180 | 2.0 | 10.0 | 0.01 | 0.22 | 0.22 | 97 | 1002.7 |
| 20260507034544 | 51 | 209 | 3.0 | 10.0 | 0.01 | 0.22 | 0.22 | 98 | 1002.6 |
| 20260507034031 | 51 | 221 | 2.0 | 5.0 | 0.01 | 0.22 | 0.22 | 97 | 1002.3 |
| 20260507033531 | 51 | 202 | 2.0 | 6.0 | 0.01 | 0.22 | 0.22 | 97 | 1002.4 |
| 20260507033045 | 51 | 173 | 2.0 | 6.0 | 0.01 | 0.22 | 0.22 | 97 | 1002.3 |
| 20260507032530 | 51 | 259 | 2.0 | 6.0 | 0.01 | 0.22 | 0.22 | 97 | 1002.2 |
| 20260507032030 | 51 | 211 | 1.0 | 7.0 | 0.01 | 0.22 | 0.22 | 97 | 1002.3 |
| 20260507031548 | 51 | 179 | 2.0 | 8.0 | 0.00 | 0.21 | 0.21 | 97 | 1002.1 |
| 20260507031033 | 51 | 185 | 3.0 | 9.0 | 0.00 | 0.21 | 0.21 | 97 | 1002.2 |
| 20260507030531 | 51 | 199 | 3.0 | 9.0 | 0.00 | 0.21 | 0.21 | 97 | 1002.1 |
| 20260507030048 | 51 | 225 | 3.0 | 12.0 | 0.00 | 0.21 | 0.21 | 97 | 1002.2 |
| 20260507025530 | 51 | 182 | 3.0 | 12.0 | 0.00 | 0.21 | 0.21 | 97 | 1002.0 |
| 20260507025030 | 50 | 225 | 5.0 | 12.0 | 0.00 | 0.21 | 0.21 | 97 | 1002.2 |
| 20260507024547 | 50 | 188 | 3.0 | 10.0 | 0.00 | 0.21 | 0.21 | 97 | 1002.3 |
| 20260507024030 | 50 | 233 | 2.0 | 9.0 | 0.00 | 0.21 | 0.21 | 97 | 1002.2 |
| 20260507023530 | 50 | 148 | 3.0 | 15.0 | 0.00 | 0.21 | 0.21 | 97 | 1002.3 |
| 20260507023040 | 50 | 194 | 4.0 | 15.0 | 0.00 | 0.21 | 0.21 | 97 | 1002.4 |
| 20260507022530 | 50 | 212 | 3.0 | 10.0 | 0.00 | 0.21 | 0.21 | 97 | 1002.5 |
| 20260507022030 | 50 | 230 | 4.0 | 10.0 | 0.00 | 0.21 | 0.21 | 97 | 1002.6 |
| 20260507021553 | 50 | 213 | 3.0 | 13.0 | 0.01 | 0.21 | 0.21 | 97 | 1002.7 |
| 20260507021030 | 50 | 251 | 5.0 | 15.0 | 0.01 | 0.21 | 0.21 | 97 | 1002.7 |
| 20260507020533 | 50 | 214 | 4.0 | 15.0 | 0.01 | 0.21 | 0.21 | 97 | 1002.8 |
| 20260507020042 | 50 | 219 | 4.0 | 10.0 | 0.01 | 0.21 | 0.21 | 97 | 1002.8 |
| 20260507015530 | 50 | 198 | 4.0 | 14.0 | 0.01 | 0.21 | 0.21 | 97 | 1002.8 |
| 20260507015030 | 50 | 192 | 4.0 | 14.0 | 0.01 | 0.21 | 0.21 | 97 | 1002.8 |
| 20260507014543 | 50 | 201 | 4.0 | 12.0 | 0.01 | 0.21 | 0.21 | 97 | 1003.0 |
| 20260507014034 | 50 | 165 | 4.0 | 12.0 | 0.01 | 0.21 | 0.21 | 97 | 1003.1 |
| 20260507013530 | 50 | 200 | 5.0 | 12.0 | 0.01 | 0.21 | 0.21 | 97 | 1003.1 |
| 20260507013039 | 50 | 131 | 4.0 | 12.0 | 0.02 | 0.21 | 0.21 | 96 | 1003.1 |
| 20260507012531 | 50 | 225 | 4.0 | 14.0 | 0.02 | 0.21 | 0.21 | 96 | 1003.1 |
| 20260507012032 | 49 | 79 | 4.0 | 14.0 | 0.01 | 0.20 | 0.20 | 96 | 1003.0 |
| 20260507011540 | 50 | 214 | 5.0 | 13.0 | 0.01 | 0.20 | 0.20 | 96 | 1003.2 |
| 20260507011030 | 49 | 191 | 4.0 | 12.0 | 0.01 | 0.20 | 0.20 | 96 | 1003.2 |
| 20260507010530 | 49 | 202 | 4.0 | 12.0 | 0.01 | 0.20 | 0.20 | 96 | 1003.2 |
| 20260507010046 | 50 | 248 | 4.0 | 12.0 | 0.01 | 0.20 | 0.20 | 96 | 1003.3 |
| 20260507005530 | 50 | 193 | 4.0 | 10.0 | 0.01 | 0.20 | 0.20 | 96 | 1003.2 |
| 20260507005033 | 50 | 182 | 4.0 | 10.0 | 0.01 | 0.20 | 0.20 | 96 | 1003.4 |
| 20260507004546 | 50 | 230 | 3.0 | 14.0 | 0.01 | 0.20 | 0.20 | 96 | 1003.2 |
| 20260507004030 | 50 | 194 | 3.0 | 14.0 | 0.01 | 0.20 | 0.20 | 96 | 1003.3 |
| 20260507003531 | 50 | 221 | 5.0 | 17.0 | 0.01 | 0.20 | 0.20 | 96 | 1003.3 |
| 20260507003040 | 50 | 209 | 4.0 | 17.0 | 0.00 | 0.19 | 0.19 | 96 | 1003.4 |
| 20260507002530 | 50 | 239 | 5.0 | 16.0 | 0.00 | 0.19 | 0.19 | 96 | 1003.2 |
| 20260507002031 | 50 | 155 | 3.0 | 10.0 | 0.00 | 0.19 | 0.19 | 96 | 1003.3 |
| 20260507001543 | 50 | 203 | 4.0 | 12.0 | 0.00 | 0.19 | 0.19 | 96 | 1003.4 |
| 20260507001030 | 50 | 203 | 4.0 | 13.0 | 0.00 | 0.19 | 0.19 | 96 | 1003.3 |
| 20260507000530 | 51 | 149 | 4.0 | 16.0 | 0.00 | 0.19 | 0.19 | 96 | 1003.3 |
| 20260507000046 | 51 | 205 | 4.0 | 16.0 | 0.00 | 0.19 | 0.19 | 96 | 1003.4 |
| 20260506235531 | 51 | 221 | 4.0 | 12.0 | 0.00 | 0.19 | 0.19 | 96 | 1003.4 |
| 20260506235030 | 51 | 237 | 5.0 | 15.0 | 0.00 | 0.19 | 0.19 | 96 | 1003.5 |
| 20260506234557 | 51 | 161 | 4.0 | 15.0 | 0.00 | 0.19 | 0.19 | 95 | 1003.4 |
| 20260506234030 | 51 | 199 | 3.0 | 17.0 | 0.00 | 0.19 | 0.19 | 96 | 1003.4 |
| 20260506233530 | 52 | 137 | 4.0 | 17.0 | 0.00 | 0.19 | 0.19 | 96 | 1003.3 |
| 20260506233041 | 52 | 190 | 4.0 | 12.0 | 0.00 | 0.19 | 0.19 | 96 | 1003.4 |
| 20260506232530 | 52 | 202 | 4.0 | 13.0 | 0.00 | 0.19 | 0.19 | 95 | 1003.5 |
| 20260506232030 | 52 | 148 | 5.0 | 18.0 | 0.00 | 0.19 | 0.19 | 96 | 1003.5 |
| 20260506231548 | 52 | 196 | 5.0 | 18.0 | 0.01 | 0.19 | 0.19 | 96 | 1003.5 |
| 20260506231031 | 52 | 168 | 6.0 | 18.0 | 0.01 | 0.19 | 0.19 | 95 | 1003.4 |
| 20260506230533 | 52 | 259 | 6.0 | 16.0 | 0.02 | 0.19 | 0.19 | 96 | 1003.5 |
| 20260506230048 | 52 | 242 | 5.0 | 15.0 | 0.03 | 0.19 | 0.19 | 95 | 1003.5 |
| 20260506225532 | 52 | 194 | 5.0 | 15.0 | 0.03 | 0.19 | 0.19 | 96 | 1003.5 |
| 20260506225032 | 52 | 217 | 5.0 | 15.0 | 0.04 | 0.19 | 0.19 | 95 | 1003.5 |
| 20260506224547 | 52 | 161 | 7.0 | 15.0 | 0.05 | 0.19 | 0.19 | 95 | 1003.5 |
| 20260506224033 | 52 | 238 | 5.0 | 14.0 | 0.07 | 0.19 | 0.19 | 95 | 1003.6 |
| 20260506223532 | 53 | 228 | 5.0 | 18.0 | 0.07 | 0.19 | 0.19 | 95 | 1003.7 |
| 20260506223050 | 53 | 175 | 4.0 | 18.0 | 0.08 | 0.19 | 0.19 | 95 | 1003.8 |
| 20260506222532 | 53 | 192 | 5.0 | 16.0 | 0.09 | 0.19 | 0.19 | 95 | 1003.7 |
| 20260506222034 | 53 | 211 | 5.0 | 14.0 | 0.09 | 0.19 | 0.19 | 95 | 1003.7 |
| 20260506221545 | 53 | 227 | 5.0 | 16.0 | 0.09 | 0.18 | 0.18 | 95 | 1003.8 |
| 20260506221033 | 53 | 181 | 5.0 | 16.0 | 0.10 | 0.18 | 0.18 | 96 | 1003.9 |
| 20260506220536 | 52 | 184 | 5.0 | 16.0 | 0.10 | 0.17 | 0.17 | 95 | 1004.0 |
| 20260506220046 | 52 | 231 | 5.0 | 17.0 | 0.09 | 0.16 | 0.16 | 95 | 1003.9 |
| 20260506215532 | 52 | 167 | 7.0 | 17.0 | 0.10 | 0.16 | 0.16 | 95 | 1004.2 |
| 20260506215033 | 52 | 144 | 6.0 | 20.0 | 0.09 | 0.15 | 0.15 | 95 | 1004.2 |
| 20260506214544 | 52 | 219 | 6.0 | 20.0 | 0.08 | 0.14 | 0.14 | 95 | 1004.2 |
| 20260506214034 | 52 | 252 | 6.0 | 17.0 | 0.07 | 0.12 | 0.12 | 95 | 1004.2 |
| 20260506213534 | 52 | 203 | 5.0 | 15.0 | 0.06 | 0.11 | 0.11 | 94 | 1004.2 |
| 20260506213046 | 52 | 230 | 5.0 | 19.0 | 0.06 | 0.11 | 0.11 | 94 | 1004.3 |
| 20260506212532 | 52 | 199 | 5.0 | 19.0 | 0.05 | 0.10 | 0.10 | 94 | 1004.3 |
| 20260506212035 | 52 | 190 | 4.0 | 12.0 | 0.05 | 0.10 | 0.10 | 94 | 1004.4 |
| 20260506211552 | 52 | 203 | 5.0 | 12.0 | 0.04 | 0.09 | 0.09 | 94 | 1004.5 |
| 20260506211034 | 52 | 238 | 3.0 | 15.0 | 0.03 | 0.08 | 0.08 | 93 | 1004.4 |
| 20260506210533 | 52 | 256 | 5.0 | 15.0 | 0.02 | 0.07 | 0.07 | 93 | 1004.4 |
| 20260506210053 | 52 | 234 | 6.0 | 15.0 | 0.03 | 0.07 | 0.07 | 93 | 1004.4 |
| 20260506205532 | 52 | 162 | 5.0 | 16.0 | 0.02 | 0.06 | 0.06 | 93 | 1004.4 |
| 20260506205033 | 53 | 226 | 6.0 | 16.0 | 0.03 | 0.06 | 0.06 | 92 | 1004.4 |
| 20260506204558 | 53 | 188 | 4.0 | 10.0 | 0.03 | 0.06 | 0.06 | 92 | 1004.6 |
| 20260506204032 | 53 | 213 | 3.0 | 10.0 | 0.02 | 0.05 | 0.05 | 92 | 1004.5 |
| 20260506203532 | 53 | 214 | 4.0 | 10.0 | 0.02 | 0.05 | 0.05 | 92 | 1004.6 |
| 20260506203048 | 54 | 211 | 3.0 | 14.0 | 0.04 | 0.05 | 0.05 | 92 | 1004.6 |
| 20260506202533 | 54 | 177 | 4.0 | 14.0 | 0.05 | 0.05 | 0.05 | 92 | 1004.6 |
| 20260506202033 | 54 | 243 | 4.0 | 11.0 | 0.05 | 0.05 | 0.05 | 92 | 1004.5 |
| 20260506201553 | 54 | 182 | 5.0 | 11.0 | 0.05 | 0.05 | 0.05 | 92 | 1004.6 |
| 20260506201033 | 54 | 218 | 5.0 | 16.0 | 0.05 | 0.05 | 0.05 | 92 | 1004.5 |
| 20260506200618 | 54 | 182 | 5.0 | 16.0 | 0.05 | 0.05 | 0.05 | 92 | 1004.6 |
| 20260506200105 | 54 | 224 | 6.0 | 12.0 | 0.04 | 0.04 | 0.04 | 92 | 1005.3 |
| 20260506195533 | 54 | 176 | 3.0 | 10.0 | 0.04 | 0.04 | 0.04 | 92 | 1004.9 |
| 20260506195034 | 54 | 134 | 4.0 | 9.0 | 0.03 | 0.03 | 0.03 | 92 | 1005.0 |
| 20260506194549 | 54 | 235 | 2.0 | 8.0 | 0.03 | 0.03 | 0.03 | 92 | 1005.1 |
| 20260506194033 | 54 | 180 | 3.0 | 12.0 | 0.03 | 0.03 | 0.03 | 91 | 1005.2 |
| 20260506193532 | 54 | 224 | 3.0 | 12.0 | 0.02 | 0.02 | 0.02 | 91 | 1005.3 |
| 20260506193043 | 54 | 258 | 4.0 | 13.0 | 0.01 | 0.01 | 0.01 | 91 | 1005.4 |
| 20260506192532 | 54 | 168 | 4.0 | 13.0 | 0.00 | 0.00 | 0.00 | 91 | 1005.3 |
| 20260506192033 | 54 | 221 | 4.0 | 14.0 | 0.00 | 0.00 | 0.00 | 91 | 1005.2 |
| 20260506191547 | 53 | 161 | 4.0 | 14.0 | 0.00 | 0.00 | 0.00 | 91 | 1005.2 |
| 20260506191033 | 53 | 216 | 4.0 | 12.0 | 0.00 | 0.00 | 0.00 | 90 | 1005.1 |
| 20260506190533 | 53 | 221 | 5.0 | 16.0 | 0.00 | 0.00 | 0.00 | 90 | 1005.3 |
| 20260506190046 | 53 | 217 | 7.0 | 16.0 | 0.00 | 0.00 | 0.00 | 89 | 1005.3 |
| 20260506185532 | 53 | 214 | 4.0 | 13.0 | 0.00 | 0.00 | 0.00 | 89 | 1005.2 |
| 20260506185034 | 53 | 174 | 6.0 | 14.0 | 0.00 | 0.00 | 0.00 | 88 | 1005.0 |
| 20260506184544 | 53 | 242 | 5.0 | 14.0 | 0.00 | 0.00 | 0.00 | 88 | 1004.9 |
| 20260506184032 | 54 | 176 | 5.0 | 13.0 | 0.00 | 0.00 | 0.00 | 88 | 1004.8 |
| 20260506183532 | 54 | 194 | 5.0 | 14.0 | 0.00 | 0.00 | 0.00 | 87 | 1004.9 |
| 20260506183059 | 54 | 196 | 4.0 | 16.0 | 0.00 | 0.00 | 0.00 | 87 | 1004.9 |
| 20260506182531 | 54 | 102 | 6.0 | 17.0 | 0.00 | 0.00 | 0.00 | 87 | 1004.9 |
| 20260506182033 | 54 | 200 | 6.0 | 17.0 | 0.00 | 0.00 | 0.00 | 87 | 1005.0 |
| 20260506181554 | 54 | 106 | 6.0 | 15.0 | 0.00 | 0.00 | 0.00 | 86 | 1005.1 |
| 20260506181033 | 54 | 198 | 5.0 | 18.0 | 0.00 | 0.00 | 0.00 | 86 | 1005.1 |
| 20260506180534 | 54 | 217 | 4.0 | 18.0 | 0.00 | 0.00 | 0.00 | 85 | 1005.1 |
| 20260506180100 | 54 | 237 | 6.0 | 16.0 | 0.00 | 0.00 | 0.00 | 85 | 1005.1 |
| 20260506175535 | 55 | 187 | 5.0 | 19.0 | 0.00 | 0.00 | 0.00 | 85 | 1005.1 |
| 20260506175032 | 55 | 259 | 5.0 | 21.0 | 0.00 | 0.00 | 0.00 | 85 | 1005.2 |
| 20260506174546 | 55 | 311 | 4.0 | 21.0 | 0.00 | 0.00 | 0.00 | 85 | 1005.2 |
| 20260506174033 | 55 | 205 | 5.0 | 15.0 | 0.00 | 0.00 | 0.00 | 85 | 1005.1 |
| 20260506173533 | 55 | 199 | 6.0 | 15.0 | 0.00 | 0.00 | 0.00 | 85 | 1005.2 |
| 20260506173053 | 54 | 180 | 6.0 | 12.0 | 0.00 | 0.00 | 0.00 | 85 | 1005.3 |
| 20260506172533 | 54 | 232 | 5.0 | 12.0 | 0.00 | 0.00 | 0.00 | 86 | 1005.4 |
| 20260506172033 | 54 | 219 | 4.0 | 10.0 | 0.00 | 0.00 | 0.00 | 86 | 1005.4 |
| 20260506171547 | 54 | 249 | 4.0 | 10.0 | 0.00 | 0.00 | 0.00 | 85 | 1005.5 |
| 20260506171033 | 54 | 245 | 3.0 | 10.0 | 0.00 | 0.00 | 0.00 | 86 | 1005.6 |
| 20260506170532 | 54 | 149 | 3.0 | 14.0 | 0.00 | 0.00 | 0.00 | 86 | 1005.6 |
| 20260506170047 | 54 | 190 | 3.0 | 14.0 | 0.00 | 0.00 | 0.00 | 86 | 1005.8 |
| 20260506165534 | 54 | 191 | 4.0 | 13.0 | 0.00 | 0.00 | 0.00 | 86 | 1005.8 |
| 20260506165031 | 55 | 237 | 4.0 | 16.0 | 0.00 | 0.00 | 0.00 | 85 | 1006.0 |
| 20260506164546 | 55 | 159 | 5.0 | 16.0 | 0.00 | 0.00 | 0.00 | 85 | 1006.1 |
| 20260506164030 | 55 | 131 | 6.0 | 14.0 | 0.00 | 0.00 | 0.00 | 85 | 1006.1 |
| 20260506163530 | 55 | 187 | 4.0 | 14.0 | 0.00 | 0.00 | 0.00 | 85 | 1006.1 |
| 20260506163051 | 55 | 128 | 3.0 | 11.0 | 0.00 | 0.00 | 0.00 | 86 | 1006.2 |
| 20260506162534 | 55 | 228 | 5.0 | 12.0 | 0.00 | 0.00 | 0.00 | 85 | 1006.4 |
| 20260506162030 | 55 | 146 | 5.0 | 12.0 | 0.00 | 0.00 | 0.00 | 85 | 1006.6 |
| 20260506161556 | 56 | 249 | 4.0 | 12.0 | 0.00 | 0.00 | 0.00 | 85 | 1006.7 |
| 20260506161030 | 56 | 169 | 5.0 | 15.0 | 0.00 | 0.00 | 0.00 | 85 | 1006.8 |
| 20260506160531 | 56 | 225 | 7.0 | 15.0 | 0.00 | 0.00 | 0.00 | 85 | 1006.9 |
| 20260506160047 | 55 | 217 | 6.0 | 16.0 | 0.00 | 0.00 | 0.00 | 86 | 1007.0 |
| 20260506155530 | 55 | 215 | 8.0 | 18.0 | 0.00 | 0.00 | 0.00 | 86 | 1007.1 |
| 20260506155030 | 55 | 164 | 5.0 | 18.0 | 0.00 | 0.00 | 0.00 | 86 | 1007.1 |
| 20260506154542 | 55 | 166 | 5.0 | 13.0 | 0.00 | 0.00 | 0.00 | 87 | 1007.2 |
| 20260506154030 | 55 | 297 | 4.0 | 14.0 | 0.00 | 0.00 | 0.00 | 87 | 1007.1 |
| 20260506153530 | 55 | 229 | 5.0 | 14.0 | 0.00 | 0.00 | 0.00 | 87 | 1007.1 |
| 20260506153048 | 55 | 188 | 5.0 | 16.0 | 0.00 | 0.00 | 0.00 | 87 | 1007.0 |
| 20260506152530 | 54 | 228 | 5.0 | 16.0 | 0.00 | 0.00 | 0.00 | 87 | 1007.2 |
| 20260506152031 | 54 | 211 | 5.0 | 16.0 | 0.00 | 0.00 | 0.00 | 87 | 1007.3 |
| 20260506151601 | 55 | 205 | 4.0 | 13.0 | 0.00 | 0.00 | 0.00 | 86 | 1007.2 |
| 20260506151030 | 55 | 196 | 5.0 | 15.0 | 0.00 | 0.00 | 0.00 | 85 | 1007.1 |
| 20260506150530 | 55 | 219 | 5.0 | 15.0 | 0.00 | 0.00 | 0.00 | 85 | 1007.1 |
| 20260506150047 | 56 | 233 | 5.0 | 14.0 | 0.00 | 0.00 | 0.00 | 84 | 1007.1 |
| 20260506145530 | 56 | 234 | 6.0 | 14.0 | 0.00 | 0.00 | 0.00 | 85 | 1007.1 |
| 20260506145031 | 56 | 242 | 4.0 | 13.0 | 0.00 | 0.00 | 0.00 | 85 | 1006.9 |
| 20260506144542 | 56 | 202 | 6.0 | 15.0 | 0.00 | 0.00 | 0.00 | 86 | 1006.7 |
| 20260506144038 | 55 | 142 | 4.0 | 15.0 | 0.00 | 0.00 | 0.00 | 87 | 1006.7 |
| 20260506143531 | 55 | 200 | 6.0 | 15.0 | 0.00 | 0.00 | 0.00 | 87 | 1006.7 |
| 20260506143053 | 55 | 188 | 5.0 | 15.0 | 0.00 | 0.00 | 0.00 | 88 | 1006.8 |
| 20260506142530 | 54 | 162 | 5.0 | 11.0 | 0.00 | 0.00 | 0.00 | 89 | 1006.8 |
| 20260506142028 | 54 | 239 | 5.0 | 14.0 | 0.00 | 0.00 | 0.00 | 89 | 1007.0 |
| 20260506141549 | 53 | 222 | 6.0 | 14.0 | 0.00 | 0.00 | 0.00 | 89 | 1007.0 |
| 20260506141031 | 54 | 186 | 5.0 | 19.0 | 0.00 | 0.00 | 0.00 | 89 | 1007.0 |
| 20260506140531 | 54 | 219 | 5.0 | 19.0 | 0.00 | 0.00 | 0.00 | 89 | 1007.2 |
| 20260506140056 | 54 | 215 | 5.0 | 19.0 | 0.00 | 0.00 | 0.00 | 89 | 1007.3 |
| 20260506135531 | 54 | 171 | 4.0 | 15.0 | 0.00 | 0.00 | 0.00 | 89 | 1007.2 |
| 20260506135030 | 53 | 175 | 4.0 | 15.0 | 0.00 | 0.00 | 0.00 | 89 | 1007.3 |
| 20260506134547 | 53 | 203 | 5.0 | 10.0 | 0.00 | 0.00 | 0.00 | 89 | 1007.2 |
| 20260506134030 | 53 | 138 | 4.0 | 12.0 | 0.00 | 0.00 | 0.00 | 89 | 1007.2 |
| 20260506133530 | 53 | 231 | 6.0 | 15.0 | 0.00 | 0.00 | 0.00 | 89 | 1007.3 |
| 20260506133042 | 53 | 209 | 4.0 | 15.0 | 0.00 | 0.00 | 0.00 | 89 | 1007.3 |
| 20260506132531 | 53 | 181 | 6.0 | 15.0 | 0.00 | 0.00 | 0.00 | 89 | 1007.0 |
| 20260506132030 | 53 | 215 | 5.0 | 11.0 | 0.00 | 0.00 | 0.00 | 89 | 1007.1 |
| 20260506131552 | 53 | 250 | 6.0 | 14.0 | 0.00 | 0.00 | 0.00 | 90 | 1007.0 |
| 20260506131035 | 53 | 213 | 6.0 | 16.0 | 0.00 | 0.00 | 0.00 | 89 | 1007.0 |
| 20260506130530 | 53 | 175 | 5.0 | 16.0 | 0.00 | 0.00 | 0.00 | 89 | 1007.0 |
| 20260506125530 | 53 | 129 | 5.0 | 15.0 | 0.00 | 0.00 | 0.00 | 89 | 1007.0 |
| 20260506125030 | 53 | 184 | 4.0 | 15.0 | 0.00 | 0.00 | 0.00 | 89 | 1007.0 |
| 20260506124540 | 53 | 289 | 5.0 | 15.0 | 0.00 | 0.00 | 0.00 | 89 | 1007.1 |
| 20260506124030 | 54 | 219 | 5.0 | 14.0 | 0.00 | 0.00 | 0.00 | 89 | 1007.1 |
| 20260506123530 | 53 | 152 | 5.0 | 13.0 | 0.00 | 0.00 | 0.00 | 89 | 1007.0 |
| 20260506123047 | 53 | 237 | 5.0 | 17.0 | 0.00 | 0.00 | 0.00 | 89 | 1007.0 |
| 20260506122530 | 53 | 215 | 5.0 | 17.0 | 0.00 | 0.00 | 0.00 | 89 | 1007.0 |
| 20260506122030 | 53 | 242 | 4.0 | 12.0 | 0.00 | 0.00 | 0.00 | 89 | 1007.4 |
| 20260506121543 | 53 | 227 | 5.0 | 14.0 | 0.00 | 0.00 | 0.00 | 89 | 1007.3 |
| 20260506121031 | 53 | 233 | 4.0 | 14.0 | 0.00 | 0.00 | 0.00 | 89 | 1007.3 |
| 20260506120531 | 53 | 136 | 4.0 | 11.0 | 0.00 | 0.00 | 0.00 | 89 | 1007.3 |
| 20260506120043 | 53 | 246 | 5.0 | 11.0 | 0.00 | 0.00 | 0.00 | 89 | 1007.2 |
| 20260506115531 | 53 | 186 | 4.0 | 11.0 | 0.00 | 0.00 | 0.00 | 89 | 1007.4 |
| 20260506115030 | 53 | 227 | 5.0 | 11.0 | 0.00 | 0.00 | 0.00 | 89 | 1007.6 |
| 20260506114542 | 53 | 281 | 4.0 | 12.0 | 0.00 | 0.00 | 0.00 | 89 | 1007.5 |
| 20260506114030 | 53 | 220 | 4.0 | 12.0 | 0.00 | 0.00 | 0.00 | 89 | 1007.5 |
| 20260506113530 | 53 | 200 | 5.0 | 12.0 | 0.00 | 0.00 | 0.00 | 89 | 1007.6 |
| 20260506113044 | 53 | 162 | 4.0 | 11.0 | 0.00 | 0.00 | 0.00 | 89 | 1007.7 |
| 20260506112530 | 53 | 173 | 4.0 | 11.0 | 0.00 | 0.00 | 0.00 | 89 | 1007.5 |
| 20260506112030 | 53 | 200 | 3.0 | 10.0 | 0.00 | 0.00 | 0.00 | 89 | 1007.5 |
| 20260506111546 | 53 | 213 | 2.0 | 10.0 | 0.00 | 0.00 | 0.00 | 89 | 1007.7 |
| 20260506111030 | 53 | 250 | 4.0 | 11.0 | 0.00 | 0.00 | 0.00 | 89 | 1007.7 |
| 20260506110530 | 53 | 198 | 2.0 | 11.0 | 0.00 | 0.00 | 0.00 | 89 | 1007.4 |
| 20260506110051 | 52 | 207 | 3.0 | 11.0 | 0.00 | 0.00 | 0.00 | 89 | 1007.5 |
| 20260506105530 | 52 | 184 | 3.0 | 11.0 | 0.00 | 0.00 | 0.00 | 89 | 1007.5 |
| 20260506105031 | 52 | 209 | 4.0 | 10.0 | 0.00 | 0.00 | 0.00 | 89 | 1007.6 |
| 20260506104539 | 52 | 203 | 4.0 | 10.0 | 0.00 | 0.00 | 0.00 | 89 | 1007.5 |
| 20260506104030 | 52 | 196 | 3.0 | 12.0 | 0.00 | 0.00 | 0.00 | 89 | 1007.4 |
| 20260506103531 | 52 | 252 | 4.0 | 12.0 | 0.00 | 0.00 | 0.00 | 89 | 1007.2 |
| 20260506103043 | 52 | 240 | 6.0 | 12.0 | 0.00 | 0.00 | 0.00 | 89 | 1007.4 |
| 20260506102531 | 52 | 190 | 4.0 | 13.0 | 0.00 | 0.00 | 0.00 | 89 | 1007.5 |
| 20260506102031 | 52 | 205 | 4.0 | 13.0 | 0.00 | 0.00 | 0.00 | 89 | 1007.5 |
| 20260506101551 | 52 | 213 | 4.0 | 10.0 | 0.00 | 0.00 | 0.00 | 90 | 1007.3 |
| 20260506101030 | 52 | 218 | 4.0 | 10.0 | 0.00 | 0.00 | 0.00 | 90 | 1007.2 |
| 20260506100530 | 52 | 146 | 4.0 | 10.0 | 0.00 | 0.00 | 0.00 | 90 | 1007.1 |
| 20260506100039 | 51 | 138 | 3.0 | 10.0 | 0.00 | 0.00 | 0.00 | 90 | 1007.1 |
| 20260506095530 | 51 | 175 | 4.0 | 10.0 | 0.00 | 0.00 | 0.00 | 90 | 1007.3 |
| 20260506095030 | 51 | 223 | 5.0 | 10.0 | 0.00 | 0.00 | 0.00 | 90 | 1007.4 |
| 20260506094553 | 51 | 207 | 3.0 | 12.0 | 0.00 | 0.00 | 0.00 | 89 | 1007.3 |
| 20260506094032 | 51 | 138 | 4.0 | 12.0 | 0.00 | 0.00 | 0.00 | 89 | 1007.1 |
| 20260506093530 | 51 | 197 | 4.0 | 12.0 | 0.00 | 0.00 | 0.00 | 89 | 1007.1 |
| 20260506093039 | 51 | 208 | 4.0 | 11.0 | 0.00 | 0.00 | 0.00 | 89 | 1007.1 |
| 20260506092531 | 51 | 219 | 4.0 | 11.0 | 0.00 | 0.00 | 0.00 | 89 | 1007.1 |
| 20260506092034 | 51 | 234 | 4.0 | 11.0 | 0.00 | 0.00 | 0.00 | 89 | 1007.1 |
| 20260506091539 | 51 | 159 | 3.0 | 10.0 | 0.00 | 0.00 | 0.00 | 89 | 1007.1 |
| 20260506091031 | 51 | 214 | 3.0 | 10.0 | 0.00 | 0.00 | 0.00 | 89 | 1007.1 |
| 20260506090530 | 51 | 230 | 3.0 | 10.0 | 0.00 | 0.00 | 0.00 | 88 | 1007.1 |
| 20260506090043 | 51 | 227 | 4.0 | 10.0 | 0.00 | 0.00 | 0.00 | 88 | 1007.2 |
| 20260506085531 | 52 | 174 | 4.0 | 9.0 | 0.00 | 0.00 | 0.00 | 88 | 1007.1 |
| 20260506085030 | 52 | 246 | 4.0 | 10.0 | 0.00 | 0.00 | 0.00 | 88 | 1007.1 |
| 20260506084550 | 52 | 163 | 4.0 | 10.0 | 0.00 | 0.00 | 0.00 | 88 | 1007.0 |
| 20260506084030 | 52 | 214 | 4.0 | 11.0 | 0.00 | 0.00 | 0.00 | 88 | 1007.0 |
| 20260506083534 | 52 | 198 | 5.0 | 11.0 | 0.00 | 0.00 | 0.00 | 87 | 1006.9 |
| 20260506083043 | 52 | 118 | 5.0 | 16.0 | 0.00 | 0.00 | 0.00 | 87 | 1006.9 |
| 20260506082530 | 52 | 227 | 5.0 | 16.0 | 0.00 | 0.00 | 0.00 | 87 | 1006.9 |
| 20260506082032 | 52 | 182 | 5.0 | 9.0 | 0.00 | 0.00 | 0.00 | 87 | 1007.0 |
| 20260506081540 | 52 | 188 | 3.0 | 8.0 | 0.00 | 0.00 | 0.00 | 87 | 1007.0 |
| 20260506081033 | 52 | 225 | 4.0 | 10.0 | 0.00 | 0.00 | 0.00 | 87 | 1007.1 |
| 20260506080531 | 52 | 231 | 4.0 | 12.0 | 0.00 | 0.00 | 0.00 | 87 | 1007.1 |